EW4496 Weather Reports


time (UTC)temp
C
wind
direction
speed
KPH
gust
KPH
rain 1hr
cm
rain 24hr
cm
rain mn
cm
humidity
%
barometer
mb
20260506234530 24 355 0.0 1.6 0.00 0.00 0.00 54 1016.2
20260506233022 24 3 0.0 4.8 0.00 0.00 0.00 53 1016.2
20260506231527 23 4 0.0 6.4 0.00 0.00 0.00 53 1016.3
20260506230026 23 37 0.0 8.0 0.00 0.00 0.00 55 1016.6
20260506224523 23 28 1.6 6.4 0.00 0.00 0.00 54 1016.9
20260506223022 23 12 0.0 0.0 0.00 0.00 0.00 54 1017.0
20260506221522 22 323 0.0 3.2 0.00 0.00 0.00 55 1017.3
20260506220028 23 36 0.0 9.7 0.00 0.00 0.00 55 1017.6
20260506214522 22 17 0.0 1.6 0.00 0.00 0.00 55 1017.8
20260506213007 22 345 0.0 6.4 0.00 0.00 0.00 55 1018.0
20260506211511 22 23 0.0 6.4 0.00 0.00 0.00 56 1018.2
20260506210012 21 7 0.0 9.7 0.00 0.00 0.00 59 1018.3
20260506204507 22 38 0.0 4.8 0.00 0.00 0.00 58 1018.5
20260506203007 22 324 0.0 4.8 0.00 0.00 0.00 55 1018.6
20260506201508 21 31 0.0 9.7 0.00 0.00 0.00 59 1018.8
20260506200023 21 345 0.0 12.9 0.00 0.00 0.00 59 1018.9
20260506194522 21 25 1.6 6.4 0.00 0.00 0.00 57 1019.0
20260506193024 21 4 0.0 4.8 0.00 0.00 0.00 59 1019.3
20260506191522 21 11 0.0 4.8 0.00 0.00 0.00 60 1019.5
20260506190022 21 35 0.0 0.0 0.00 0.00 0.00 63 1019.5
20260506184536 20 30 0.0 1.6 0.00 0.00 0.00 64 1019.7
20260506183021 20 25 0.0 1.6 0.00 0.00 0.00 64 1019.7
20260506181551 20 354 0.0 0.0 0.00 0.00 0.00 65 1019.8
20260506174601 18 301 0.0 0.0 0.00 0.00 0.00 69 1019.8
20260506173112 18 304 0.0 1.6 0.00 0.00 0.00 70 1019.9
20260506171610 17 316 0.0 1.6 0.00 0.00 0.00 74 1019.9
20260506170115 17 340 0.0 0.0 0.00 0.00 0.00 76 1020.0
20260506164521 16 290 0.0 0.0 0.00 0.00 0.00 77 1019.9
20260506163019 16 304 0.0 0.0 0.00 0.00 0.00 77 1019.8
20260506161533 16 245 0.0 0.0 0.00 0.00 0.00 78 1019.9
20260506160032 15 290 0.0 0.0 0.00 0.00 0.00 79 1019.9
20260506154531 15 238 0.0 0.0 0.00 0.00 0.00 80 1019.8
20260506153032 15 300 0.0 0.0 0.00 0.00 0.00 81 1019.9
20260506151531 15 315 0.0 0.0 0.00 0.00 0.00 82 1019.8
20260506150031 14 231 0.0 0.0 0.00 0.00 0.00 82 1019.8
20260506144532 14 266 0.0 0.0 0.00 0.00 0.00 83 1019.7
20260506143034 13 286 0.0 0.0 0.00 0.00 0.00 84 1019.7
20260506141530 13 267 0.0 0.0 0.00 0.00 0.00 86 1019.6
20260506140030 13 233 0.0 0.0 0.00 0.00 0.00 86 1019.3
20260506134530 13 233 0.0 0.0 0.00 0.00 0.00 86 1019.2
20260506133033 13 233 0.0 0.0 0.00 0.00 0.00 86 1019.2
20260506131536 13 229 0.0 0.0 0.00 0.00 0.00 87 1019.1
20260506130030 13 228 0.0 0.0 0.00 0.00 0.00 87 1019.1
20260506124531 13 233 0.0 0.0 0.00 0.00 0.00 87 1019.0
20260506123050 13 233 0.0 0.0 0.00 0.00 0.00 88 1018.9
20260506121614 13 200 0.0 0.0 0.00 0.00 0.00 87 1018.7
20260506120129 13 233 0.0 0.0 0.00 0.00 0.00 87 1018.7
20260506114614 13 196 0.0 0.0 0.00 0.00 0.00 87 1018.7
20260506113115 13 219 0.0 0.0 0.00 0.00 0.00 86 1018.7
20260506111616 13 207 0.0 0.0 0.00 0.00 0.00 86 1018.5
20260506110016 13 250 0.0 0.0 0.00 0.00 0.00 86 1018.4
20260506104515 13 229 0.0 0.0 0.00 0.00 0.00 86 1018.2
20260506103025 13 232 0.0 0.0 0.00 0.00 0.00 86 1018.1
20260506101514 13 226 0.0 0.0 0.00 0.00 0.00 86 1018.0
20260506100033 13 231 0.0 0.0 0.00 0.03 0.00 85 1018.0
20260506094535 13 290 0.0 0.0 0.00 0.03 0.00 85 1017.9
20260506093042 13 229 0.0 0.0 0.00 0.03 0.00 86 1018.0
20260506091529 13 259 0.0 0.0 0.00 0.03 0.00 85 1017.9
20260506090029 13 236 0.0 0.0 0.00 0.03 0.00 84 1017.9
20260506084544 13 233 0.0 0.0 0.00 0.03 0.00 85 1018.0
20260506083046 14 226 0.0 0.0 0.00 0.03 0.00 85 1018.1
20260506081549 14 226 0.0 0.0 0.00 0.03 0.00 85 1018.0
20260506080117 14 360 0.0 0.0 0.00 0.05 0.00 82 1018.0
20260506073105 14 360 0.0 0.0 0.00 0.05 0.00 82 1017.8
20260506071603 14 360 0.0 0.0 0.00 0.05 0.00 82 1017.6
20260506070118 14 340 0.0 1.6 0.00 0.20 0.05 82 1017.5
20260506061503 14 319 0.0 0.0 0.00 0.20 0.05 83 1017.0
20260506044546 15 288 0.0 0.0 0.00 0.51 0.05 80 1016.2
20260506043033 16 305 0.0 1.6 0.00 0.51 0.05 80 1016.0
20260506041537 16 278 0.0 0.0 0.00 0.51 0.05 82 1015.6
20260506040036 16 294 0.0 0.0 0.00 0.71 0.05 81 1015.6
20260506034548 16 319 0.0 0.0 0.00 0.71 0.05 81 1015.6
20260506033048 16 273 0.0 0.0 0.00 0.71 0.05 80 1015.4
20260506031557 16 273 0.0 0.0 0.00 0.71 0.05 79 1015.1
20260506030105 17 264 0.0 0.0 0.00 0.76 0.05 78 1015.0
20260506024547 17 231 0.0 0.0 0.00 0.76 0.05 78 1014.8
20260506023048 17 239 0.0 0.0 0.00 0.76 0.05 77 1014.5
20260506021547 17 217 0.0 1.6 0.00 0.76 0.05 76 1014.4
20260506020047 17 179 0.0 1.6 0.00 0.81 0.05 75 1014.6
20260506014550 17 181 0.0 3.2 0.00 0.81 0.05 74 1014.6
20260506013022 17 191 0.0 3.2 0.00 0.81 0.05 74 1014.4
20260506011520 17 221 0.0 6.4 0.00 0.81 0.05 73 1014.4
20260506010002 17 198 0.0 4.8 0.00 0.94 0.05 71 1014.2
20260506004517 17 174 0.0 6.4 0.00 0.94 0.05 70 1014.2
20260506003017 18 174 0.0 3.2 0.00 0.94 0.05 69 1014.2
20260506001517 18 210 0.0 3.2 0.00 0.94 0.05 68 1014.1
20260506000016 18 221 0.0 0.0 0.00 1.04 0.05 66 1014.0